Memphis, TN

4:55 AM CST on December 14, 2017 (GMT -0600)
Memphis International

Weather History for KMEM - September, 2012

Change the Weather History Date:

Monday, September 24, 2012

  Actual Average Record
Temperature  
Mean Temperature 64 °F 72 °F  
Max Temperature 75 °F 82 °F 97 °F (2016)
Min Temperature 53 °F 62 °F 43 °F (1983)
Degree Days  
Heating Degree Days 1 1  
Month to date heating degree days 1 4  
Since 1 July heating degree days 1 4  
Cooling Degree Days 0 8  
Month to date cooling degree days 259 275  
Year to date cooling degree days 2496 2110  
Growing Degree Days 14 (Base 50)    
Moisture  
Dew Point 45 °F    
Average Humidity 51    
Maximum Humidity 66    
Minimum Humidity 35    
Precipitation  
Precipitation 0.00 in 0.11 in 3.77 in (1890)
Month to date precipitation 6.42 2.37  
Year to date precipitation 26.02 37.75  
Snow  
Snow 0.00 in 0.00 in 0.00 in (2002)
Month to date snowfall 0.0 0.0  
Since 1 July snowfall 0.0 0.0  
Since 1 September snowfall 0.0 0.0  
Snow Depth 0.00 in    
Sea Level Pressure  
Sea Level Pressure 30.16 in    
Wind  
Wind Speed 7 mph (SE)    
Max Wind Speed 15 mph    
Max Gust Speed 18 mph    
Visibility 10 miles    
Events      
T = Trace of Precipitation, MM = Missing Value Source: NWS Daily Summary

Daily Weather History Graph

Daily Weather History Graph

Search for Another Location

Airport or City:

Trip Planner

Search our weather history database for the weather conditions in past years. The results will help you decide how hot, cold, wet, or windy it might be!

Date:

Astronomy

Sep. 24, 2012 Rise Set
Actual Time 6:49 AM CDT 6:53 PM CDT
Civil Twilight 6:24 AM CDT 7:18 PM CDT
Nautical Twilight 5:55 AM CDT 7:47 PM CDT
Astronomical Twilight 5:25 AM CDT 8:17 PM CDT
Moon 3:29 PM CDT (9/24) 1:17 AM CDT (9/24)
Length of Visible Light 12h 53m
Length of Day
12h 03m
Waxing Gibbous, 71% of the Moon is Illuminated
Sep 24
Waxing Gibbous
Sep 29
Full
Oct 8
Last Quarter
Oct 15
New
Oct 21
First Quarter

Hourly Weather History & Observations

Time (CDT) Temp. Dew Point Humidity Pressure Visibility Wind Dir Wind Speed Gust Speed Precip Events Conditions
12:54 AM 59.0 °F 39.9 °F 49% 30.23 in 10.0 mi ENE 3.5 mph - N/A   Clear
1:54 AM 57.9 °F 41.0 °F 53% 30.23 in 10.0 mi ENE 5.8 mph - N/A   Clear
2:54 AM 57.9 °F 39.9 °F 51% 30.23 in 10.0 mi ENE 8.1 mph - N/A   Clear
3:54 AM 55.9 °F 41.0 °F 57% 30.24 in 10.0 mi East 4.6 mph - N/A   Clear
4:54 AM 54.0 °F 41.0 °F 62% 30.24 in 10.0 mi East 5.8 mph - N/A   Partly Cloudy
5:54 AM 54.0 °F 42.1 °F 64% 30.24 in 10.0 mi East 5.8 mph - N/A   Partly Cloudy
6:54 AM 53.1 °F 42.1 °F 66% 30.24 in 10.0 mi East 6.9 mph - N/A   Scattered Clouds
7:54 AM 55.9 °F 43.0 °F 62% 30.24 in 10.0 mi East 5.8 mph - N/A   Mostly Cloudy
8:54 AM 60.1 °F 41.0 °F 49% 30.25 in 10.0 mi ESE 5.8 mph - N/A   Overcast
9:54 AM 60.1 °F 42.1 °F 51% 30.26 in 10.0 mi SSE 5.8 mph - N/A   Mostly Cloudy
10:54 AM 64.0 °F 42.1 °F 45% 30.25 in 10.0 mi SSE 5.8 mph - N/A   Mostly Cloudy
11:54 AM 68.0 °F 42.1 °F 39% 30.22 in 10.0 mi SE 9.2 mph - N/A   Scattered Clouds
12:54 PM 70.0 °F 42.1 °F 36% 30.19 in 10.0 mi SSE 5.8 mph - N/A   Scattered Clouds
1:54 PM 72.0 °F 44.1 °F 37% 30.17 in 10.0 mi South 3.5 mph - N/A   Scattered Clouds
2:54 PM 73.0 °F 45.0 °F 37% 30.13 in 10.0 mi SSE 5.8 mph - N/A   Overcast
3:54 PM 73.9 °F 46.0 °F 37% 30.11 in 10.0 mi Variable 5.8 mph - N/A   Mostly Cloudy
4:54 PM 73.9 °F 46.0 °F 37% 30.09 in 10.0 mi SSE 6.9 mph - N/A   Mostly Cloudy
5:54 PM 73.9 °F 46.9 °F 38% 30.08 in 10.0 mi SSE 8.1 mph - N/A   Scattered Clouds
6:54 PM 72.0 °F 48.9 °F 44% 30.07 in 10.0 mi SSE 9.2 mph - N/A   Clear
7:54 PM 69.1 °F 48.9 °F 49% 30.07 in 10.0 mi SSE 8.1 mph - N/A   Scattered Clouds
8:54 PM 69.1 °F 50.0 °F 51% 30.07 in 10.0 mi SSE 9.2 mph - N/A   Scattered Clouds
9:54 PM 68.0 °F 50.0 °F 52% 30.07 in 10.0 mi SSE 9.2 mph - N/A   Scattered Clouds
10:54 PM 68.0 °F 50.0 °F 52% 30.06 in 10.0 mi South 10.4 mph - N/A   Scattered Clouds
11:54 PM 66.9 °F 51.1 °F 57% 30.04 in 10.0 mi South 12.7 mph - N/A   Partly Cloudy